Location: Fontevrault
(47.1823°N, 0.0493°E)
Time: 18:03:55
(UTC+00:00)

COSMOS 2428 - Visible Passes

Search period start: 17 October 2021 00:00
Search period end: 27 October 2021 00:00
Orbit: 847 x 855 km, 70.9° (Epoch: 16 October)

Date Brightness Start Highest point End Pass type
(mag) Time Alt. Az. Time Alt. Az. Time Alt. Az.
17 Oct 5.4 04:13:40 10° N 04:15:37 12° NNE 04:17:34 10° NE visible
18 Oct 5.4 04:01:28 10° N 04:03:25 12° NNE 04:05:23 10° NE visible
18 Oct 3.9 05:43:52 10° NNW 05:49:19 43° NE 05:54:44 10° SE visible
19 Oct 5.4 03:49:16 10° N 03:51:13 12° NNE 03:53:11 10° NE visible
19 Oct 3.9 05:31:40 10° NNW 05:37:07 43° NE 05:42:32 10° SE visible
20 Oct 5.4 03:37:04 10° N 03:39:02 12° NNE 03:41:00 10° NE visible
20 Oct 3.9 05:19:28 10° NNW 05:24:54 43° NE 05:30:20 10° SE visible
21 Oct 5.4 03:24:51 10° N 03:26:50 12° NNE 03:28:48 10° NE visible
21 Oct 3.9 05:07:17 10° NNW 05:12:43 43° NE 05:18:08 10° SE visible
22 Oct 5.5 03:12:39 10° N 03:14:38 12° NNE 03:16:36 10° NE visible
22 Oct 3.9 04:55:04 10° NNW 05:00:31 43° NE 05:05:56 10° SE visible
23 Oct 5.5 03:00:27 10° N 03:02:26 12° NNE 03:04:25 10° NE visible
23 Oct 3.9 04:42:52 10° NNW 04:48:19 43° NE 04:53:44 10° SE visible
24 Oct 5.5 02:48:14 10° N 02:50:14 12° NNE 02:52:13 10° NE visible
24 Oct 3.8 04:30:40 10° NNW 04:36:07 43° NE 04:41:32 10° SE visible
24 Oct 4.9 19:26:51 10° S 19:27:05 11° S 19:27:05 11° S visible
25 Oct 5.5 02:36:02 10° N 02:38:02 12° NNE 02:40:01 10° NE visible
25 Oct 3.8 04:18:28 10° NNW 04:23:55 43° NE 04:29:20 10° SE visible
25 Oct 4.1 19:14:39 10° S 19:16:52 23° S 19:16:52 23° S visible
26 Oct 5.5 02:23:50 10° N 02:25:50 12° NNE 02:27:49 10° NE visible
26 Oct 3.8 04:06:15 10° NNW 04:11:43 43° NE 04:17:08 10° SE visible
26 Oct 3.4 05:50:46 10° NW 05:55:52 34° WSW 06:00:56 10° SSW visible
26 Oct 3.2 19:02:26 10° S 19:06:34 41° SE 19:06:34 41° SE visible
26 Oct 5.0 20:47:13 10° WSW 20:48:42 17° WSW 20:48:42 17° WSW visible
